Overview Statistics Trail Chart Weather Telemetry Raw packets
 

This is the latest recevied weather packets stored in our database for station/object SV9TNF-52. If no packets are shown the sender has not sent any weather packets the latest 10 day(s).

<< 20 21 22 23 24 25 26 >>
Time Temp. Humidity Pressure Rain* Wind** Luminosity Snow
1788518080 30.56° C 54% 1020 hPa 0 mm 8.49 m/s, 207° - -
1788517780 30° C 56% 1020 hPa 0 mm 7.6 m/s, 44° - -
1788517480 30° C 55% 1020 hPa 0 mm 4.02 m/s, 96° - -
1788517180 30.56° C 54% 1020 hPa 0 mm 4.92 m/s, 16° - -
1788516879 30.56° C 55% 1020 hPa 0 mm 4.02 m/s, 51° - -
1788516579 30.56° C 54% 1020 hPa 0 mm 8.49 m/s, 279° - -
1788516280 30.56° C 53% 1020 hPa 0 mm 5.36 m/s, 34° - -
1788515979 31.67° C 52% 1020 hPa 0 mm 4.02 m/s, 0° - -
1788515680 31.67° C 52% 1020 hPa 0 mm 4.02 m/s, 196° - -
1788515380 31.67° C 52% 1020 hPa 0 mm 4.92 m/s, 307° - -
1788515079 31.11° C 53% 1020 hPa 0 mm 6.71 m/s, 253° - -
1788514779 30.56° C 53% 1020 hPa 0 mm 6.26 m/s, 35° - -
1788514479 31.67° C 52% 1020 hPa 0 mm 4.02 m/s, 252° - -
1788514179 31.11° C 55% 1020 hPa 0 mm 3.58 m/s, 233° - -
1788513880 30.56° C 56% 1020 hPa 0 mm 6.26 m/s, 340° - -
1788513579 30.56° C 55% 1020 hPa 0 mm 6.26 m/s, 26° - -
1788513278 31.11° C 55% 1020 hPa 0 mm 4.02 m/s, 227° - -
1788512978 31.11° C 52% 1020 hPa 0 mm 4.92 m/s, 41° - -
1788512678 31.67° C 54% 1020 hPa 0 mm 3.58 m/s, 244° - -
1788512378 30.56° C 55% 1020 hPa 0 mm 5.81 m/s, 239° - -
1788512078 31.11° C 53% 1020 hPa 0 mm 5.36 m/s, 304° - -
1788511778 30.56° C 53% 1020 hPa 0 mm 7.15 m/s, 259° - -
1788511478 31.11° C 53% 1020 hPa 0 mm 4.02 m/s, 331° - -
1788511178 31.11° C 54% 1020 hPa 0 mm 4.92 m/s, 35° - -
1788510877 30.56° C 56% 1020 hPa 0 mm 4.92 m/s, 266° - -

* Rain latest hour (hover to see other rain measurements)
** Current wind speed in m/s (hover to see current wind gust speed)